User: anonymous   Login
Location: Taupo
(38.6830°S, 176.0830°E)
Time: 14:42:34
(UTC+13:00)
Language:

CZ-4C R/B - Orbit

View from above orbital plane
View from above orbital plane
View from above satellite
View from above satellite

Ground track
Ground track

The orbit data is extracted from the following two-line orbital elements,

1 36416U 10009D   19322.52047781 -.00000078  00000-0  14343-4 0  9996
2 36416  63.4300  50.5247 0473825 355.2394   4.4216 13.69554831485482
Epoch (UTC): 18 November 2019 12:29:29
Eccentricity: 0.0473825
inclination: 63.4300°
perigee height: 651 km
apogee height: 1351 km
right ascension of ascending node: 50.5247°
argument of perigee: 355.2394°
revolutions per day: 13.69554831
mean anomaly at epoch: 4.4216°
orbit number at epoch: 48548

The dashed part of the orbit path shows where the satellite is in the earth's shadow,  

DLR